Theta_e
290 291 292 293 291 291 291 290 291 291 293 295 291 285 288 294 290 288 291 291 288 289 290 291 292 292 291 291 291 292 293 292 292 292 291 291 291 292 292 292 293 293 293 294 296 297 298 298 298 299 299 300 301 301 302 302 303 303 304 304 303 303 303 303 304 305 306 307 308 309 310 311 312 314 317 321 325 326 326 326 327 327 327 328 329 329 330
289 290 291 292 291 290 290 290 290 292 292 291 291 291 293 293 292 293 291 290 287 289 290 291 291 292 292 292 293 292 291 291 291 291 290 290 291 291 292 292 292 293 294 295 296 297 297 297 298 298 298 299 299 300 300 301 302 302 303 303 303 303 302 303 304 305 306 306 307 308 308 309 311 312 315 319 322 324 325 326 327 327 326 327 327 328 328
287 290 291 292 291 290 288 289 290 291 291 291 292 292 292 292 291 291 289 287 285 290 292 291 292 292 292 291 290 290 291 291 290 290 290 290 291 291 292 292 293 293 294 295 296 296 297 297 297 298 298 299 299 300 300 300 301 302 303 302 302 303 302 303 303 304 305 305 306 306 307 308 310 310 312 317 321 323 324 325 325 326 326 325 326 327 327
285 289 289 290 291 290 288 286 288 288 289 288 288 287 290 289 287 288 288 285 284 288 292 291 291 290 289 288 289 289 289 290 290 289 289 290 291 291 292 293 293 294 294 295 295 295 296 297 297 297 298 298 299 298 299 300 300 302 302 302 301 302 303 303 303 303 303 304 305 305 306 306 308 309 310 310 312 316 321 324 324 325 324 324 325 326 326
283 288 288 288 289 290 288 284 286 288 289 289 290 290 292 292 292 288 286 285 288 290 291 288 288 288 288 288 289 288 289 290 290 289 290 290 291 291 292 293 293 293 294 295 296 296 297 297 297 298 299 298 298 299 299 300 301 301 301 301 301 301 302 303 303 303 303 303 303 304 304 305 307 307 307 307 307 307 309 317 323 321 321 322 323 324 323
284 288 288 290 288 283 282 289 291 291 289 289 287 286 289 291 294 291 292 289 290 290 289 287 286 287 287 288 289 291 290 289 289 290 291 292 292 293 293 293 294 294 295 296 297 298 298 299 299 299 300 299 300 300 300 301 300 300 300 300 301 301 301 302 302 303 302 302 302 303 303 304 305 305 305 305 305 305 306 308 311 317 320 320 318 317 319
285 288 288 285 280 280 287 292 293 293 292 290 288 288 289 290 291 291 289 289 288 289 288 288 288 288 289 290 290 290 291 291 291 291 291 292 292 293 293 294 295 296 296 297 298 298 298 299 300 300 299 300 300 300 301 300 300 300 300 300 301 301 301 301 302 302 302 302 302 302 303 303 303 303 303 303 303 303 303 302 302 304 306 310 311 311 312
288 286 285 280 278 285 289 291 293 294 293 292 290 286 288 290 290 290 287 287 287 287 288 288 289 289 289 290 291 291 292 293 292 292 292 293 294 293 294 295 296 297 297 297 298 298 299 299 299 299 299 300 300 300 301 300 300 300 300 300 300 300 300 301 302 301 301 301 301 302 302 302 302 302 302 302 301 302 302 300 300 301 301 303 304 305 307
284 283 281 279 284 285 286 286 288 291 289 290 289 283 285 290 290 289 287 287 287 287 288 288 288 289 289 287 288 292 293 293 294 294 294 295 295 296 296 297 297 298 298 298 299 299 300 300 299 299 300 300 300 300 300 300 300 300 300 299 299 300 300 302 302 302 301 301 301 301 301 301 301 301 301 301 301 301 300 300 299 299 299 300 301 302 303
287 282 279 280 280 279 283 288 294 295 295 294 293 290 284 290 291 291 288 287 287 287 288 288 288 289 288 284 285 290 293 294 294 295 296 296 296 297 297 298 298 298 298 299 299 299 299 300 300 300 300 300 300 299 299 300 300 299 299 299 300 300 300 301 302 302 302 301 301 301 301 300 300 301 301 301 300 301 299 298 298 298 298 299 299 300 300
285 283 281 279 278 281 288 290 293 295 296 296 293 290 284 289 291 291 289 288 288 288 287 288 289 289 285 283 285 290 293 294 295 294 295 295 296 297 297 297 297 297 298 298 298 299 299 298 299 301 301 300 299 299 299 299 299 299 299 299 299 300 300 301 302 302 302 301 301 301 301 301 301 300 300 300 300 300 299 299 298 298 298 297 297 297 298
283 283 281 279 282 281 288 293 293 294 297 295 292 282 283 289 291 291 290 288 288 288 289 290 290 289 285 284 287 292 294 294 295 295 294 295 295 296 297 298 298 298 299 298 298 298 298 298 300 300 300 300 299 298 299 299 299 299 299 299 300 301 301 301 302 302 302 301 301 301 302 301 301 301 301 301 300 299 299 299 298 298 298 297 296 296 296
282 281 280 282 283 287 291 292 294 295 296 293 283 281 286 291 292 292 291 290 290 290 290 291 288 288 291 292 292 294 295 294 294 295 295 295 295 295 295 296 297 297 297 297 296 297 298 298 299 299 300 299 298 298 299 298 298 299 300 301 301 300 301 301 301 301 301 300 299 300 302 302 302 301 301 300 299 299 299 299 298 297 297 297 296 295 296
283 283 282 282 284 289 293 294 295 296 292 283 284 288 293 294 293 293 292 291 291 291 292 291 290 291 292 293 293 293 294 294 294 295 295 296 296 297 297 297 297 297 297 297 297 298 298 298 298 298 299 298 298 298 298 298 299 301 301 301 301 300 300 300 300 300 300 300 300 300 301 302 301 300 301 301 300 299 299 298 297 296 296 296 296 295 295
281 281 281 280 278 286 293 294 293 294 287 288 291 291 294 296 294 293 293 292 292 293 291 291 291 291 292 292 292 293 294 294 294 294 295 295 295 296 297 297 298 298 297 297 298 298 299 299 299 299 299 298 298 298 297 298 300 301 301 302 301 301 300 300 300 300 300 300 299 300 300 301 301 300 300 300 300 299 298 298 297 295 295 295 295 294 294
282 279 280 280 285 289 293 293 288 292 292 293 293 293 290 294 295 294 293 293 293 293 292 291 291 292 292 292 293 294 294 294 295 295 296 297 297 298 298 298 298 299 298 298 298 299 299 300 300 300 299 298 298 297 297 299 300 300 301 301 302 301 300 300 300 300 300 300 300 300 301 302 302 302 301 300 299 299 298 297 296 295 294 295 294 294 293
282 282 283 286 290 290 292 292 290 292 293 295 296 295 294 293 293 295 293 292 293 293 292 291 291 291 292 292 293 293 294 295 295 295 296 296 297 298 297 297 298 298 298 298 298 298 299 300 300 300 299 298 298 297 298 300 299 299 300 301 301 300 300 300 299 299 300 300 299 299 300 301 300 300 300 300 298 299 299 298 297 295 295 295 294 294 293
288 289 289 290 289 290 290 292 293 292 293 295 295 294 292 294 294 295 293 293 293 293 293 291 291 292 292 293 293 294 294 294 295 297 297 297 298 298 298 298 298 298 298 298 298 298 298 299 300 300 300 299 298 298 299 299 299 299 299 300 300 300 300 300 299 299 299 299 299 299 299 299 299 299 299 298 298 298 299 298 297 295 294 294 294 294 293
286 280 288 288 287 290 291 291 293 294 294 294 294 293 293 293 294 294 294 293 293 294 294 293 292 292 293 292 292 293 294 294 295 296 296 297 297 296 296 297 297 297 297 296 296 297 297 299 299 299 300 299 299 300 300 299 299 299 298 299 299 299 300 300 300 299 299 297 298 299 299 298 298 298 298 299 298 297 298 298 297 295 294 294 294 293 293
285 283 287 288 290 290 291 292 291 291 292 293 294 294 294 294 295 295 294 294 294 295 294 294 293 292 293 293 293 293 294 294 295 296 296 296 296 297 297 296 296 297 296 296 296 296 297 298 299 299 299 299 299 300 300 300 299 299 298 297 298 299 299 299 299 299 298 292 295 298 297 296 296 296 297 297 296 295 295 296 297 296 295 294 293 293 293
285 288 289 289 289 289 289 291 292 293 293 292 293 294 294 294 293 293 294 295 295 295 294 294 293 292 292 294 295 294 294 294 295 295 295 296 296 296 295 295 294 294 295 295 296 297 297 298 298 299 298 298 298 299 299 300 299 298 298 297 298 299 299 299 298 299 299 299 298 298 297 296 295 294 293 295 296 296 295 295 296 298 297 295 295 296 295
282 283 285 289 285 283 287 289 291 292 293 293 293 293 293 293 293 293 292 293 294 295 295 295 295 293 292 292 294 294 294 294 295 295 295 296 296 295 294 295 295 295 295 295 296 296 297 297 297 297 297 297 298 298 299 299 299 298 298 298 298 298 298 298 298 298 299 298 298 298 297 296 296 296 289 289 291 294 294 290 288 288 290 295 295 297 296
285 289 291 291 291 290 290 291 292 293 294 294 293 293 293 294 294 294 293 292 293 293 293 295 295 294 294 293 294 294 294 294 294 294 294 294 294 294 293 294 294 295 295 295 296 295 295 296 296 296 297 297 297 298 298 299 299 299 299 298 297 297 297 297 295 297 298 298 298 298 298 298 298 294 298 296 289 288 289 289 289 288 288 288 288 289 294
292 293 292 293 292 289 291 293 293 293 295 295 293 294 294 294 294 295 295 295 294 293 293 293 295 295 295 294 295 294 293 293 293 293 293 292 292 292 292 292 293 294 294 294 294 294 295 296 296 297 297 297 297 297 298 299 300 300 299 298 297 297 297 297 297 297 298 297 298 298 298 298 298 298 298 297 297 291 289 288 289 288 288 288 288 288 288
289 293 293 293 292 292 293 294 294 294 295 295 294 293 294 294 294 296 295 295 296 295 294 294 293 294 295 294 294 294 293 293 293 292 291 291 290 291 293 293 293 293 293 293 294 294 295 295 296 296 296 296 297 297 298 299 300 300 299 298 298 298 297 297 298 298 297 298 298 298 298 298 298 298 297 296 296 296 294 290 288 289 289 288 288 288 288
293 293 294 293 293 292 293 293 293 294 294 295 294 294 295 294 294 295 295 295 294 295 295 294 294 293 294 294 294 293 293 293 291 291 292 290 291 292 293 292 292 293 293 294 294 294 294 294 294 295 295 295 296 296 298 300 300 300 300 299 299 297 296 296 298 298 298 298 297 297 298 298 297 297 297 297 296 296 296 296 295 294 291 289 288 289 288
294 294 293 291 290 291 293 292 290 294 294 295 295 295 295 295 294 294 294 295 294 295 295 295 295 294 294 294 293 293 293 293 292 292 291 290 290 290 291 292 292 293 293 294 294 291 289 292 293 293 294 295 295 296 297 300 301 300 300 300 299 295 289 291 297 298 298 298 298 298 298 298 297 296 297 297 296 296 295 295 295 295 295 295 290 288 290
294 294 294 290 288 290 292 293 294 294 294 294 294 294 294 294 294 294 293 293 294 294 294 294 295 294 294 293 293 293 292 293 292 291 290 290 290 291 291 292 293 292 293 293 293 292 292 293 293 294 294 295 295 296 297 299 300 300 300 300 299 298 299 297 297 298 298 298 298 297 297 297 298 296 296 296 296 296 295 296 295 295 294 293 293 289 289
292 292 294 294 293 293 293 294 294 293 293 295 295 295 295 294 294 294 294 294 294 294 294 294 294 294 296 294 293 294 293 293 293 291 290 291 291 291 291 292 293 292 292 293 293 293 293 293 293 294 294 295 295 295 296 299 300 300 299 299 298 298 298 297 297 297 298 298 297 295 292 294 297 297 296 296 295 297 296 295 294 295 296 295 295 295 292
292 293 292 292 293 294 293 292 292 293 293 294 294 294 295 294 293 293 294 294 294 295 295 294 294 294 294 294 293 294 294 294 294 292 291 291 292 291 290 291 292 293 294 293 292 292 292 293 293 293 294 295 295 295 296 299 300 300 300 300 299 298 298 296 297 298 298 297 296 291 294 296 297 296 295 296 296 295 295 294 293 292 294 295 292 295 294
292 293 293 294 294 294 293 292 293 293 293 294 295 294 294 295 294 294 294 294 293 295 294 295 295 295 293 295 295 294 293 293 293 292 292 292 292 291 290 291 291 290 291 291 292 292 292 293 294 294 295 295 295 296 297 298 299 300 300 299 299 293 288 287 290 296 296 296 295 296 296 296 295 294 293 295 295 295 295 294 293 293 292 294 294 294 294
292 292 293 293 293 292 292 293 293 293 293 294 294 293 294 294 293 293 295 294 296 296 295 293 293 295 296 294 293 293 292 292 292 292 292 292 289 285 285 289 290 287 291 292 291 291 292 293 294 295 295 295 295 296 297 298 299 299 299 295 298 299 295 289 294 294 296 294 295 296 295 296 295 295 294 294 295 294 294 293 292 291 292 293 293 294 293
291 290 290 290 291 292 292 293 293 292 292 293 295 296 295 295 296 295 296 295 294 293 294 295 296 294 293 292 292 292 291 289 289 289 288 285 283 284 286 289 289 290 290 291 292 292 292 293 294 295 295 295 296 297 296 297 299 299 299 299 299 299 294 294 290 295 295 295 295 294 295 294 295 295 294 293 294 293 294 293 292 291 292 292 293 294 292
292 291 292 293 293 291 291 292 294 294 292 293 293 294 294 294 295 295 295 294 294 294 295 296 295 292 291 291 290 287 286 287 289 289 286 284 283 284 286 287 289 291 292 292 292 292 293 293 294 295 296 296 297 297 297 296 297 298 299 299 299 298 297 297 296 296 295 295 294 294 294 295 295 294 293 293 295 294 292 292 291 291 292 292 292 292 289
296 295 295 295 296 296 296 295 293 294 293 292 292 292 294 294 294 295 294 294 295 297 295 293 292 290 287 286 285 285 285 288 288 286 285 284 284 281 284 289 292 293 294 295 294 294 294 294 293 294 295 296 296 297 296 296 297 297 299 299 299 297 297 296 296 296 295 295 295 296 294 294 294 290 291 293 294 294 293 292 292 292 292 292 292 291 289
295 294 294 294 294 295 296 296 295 295 294 295 294 294 293 293 293 293 292 294 295 293 293 292 290 289 285 285 284 283 285 286 284 282 282 281 279 281 286 291 291 292 292 294 296 295 294 294 286 282 291 296 296 296 295 295 297 297 299 299 298 298 296 296 296 296 296 296 295 294 293 290 289 291 292 294 295 294 293 293 292 292 293 291 292 292 291
295 295 294 294 293 294 294 294 294 294 294 294 294 293 293 293 294 294 294 294 294 294 293 292 291 291 287 285 286 285 284 285 286 285 284 280 280 283 288 288 291 291 291 292 295 295 294 294 285 281 290 295 296 296 293 283 297 298 299 299 300 298 297 296 295 296 296 296 294 294 291 291 293 295 292 294 294 294 294 293 292 293 294 292 290 290 290
293 295 294 294 293 294 294 294 293 294 294 293 292 294 295 296 294 294 294 294 294 293 292 293 295 294 290 286 284 283 283 282 280 279 279 279 284 287 290 291 291 291 291 292 295 294 295 291 284 288 297 296 296 296 291 282 284 296 299 299 298 298 297 296 294 293 294 296 293 295 295 294 292 293 293 293 294 294 294 294 293 293 294 294 293 292 292
291 292 293 293 293 294 293 291 292 293 294 294 294 294 293 294 293 293 293 294 294 291 292 293 292 293 293 293 294 291 286 283 280 280 281 284 286 288 290 293 294 294 294 296 293 294 294 291 293 295 296 296 296 295 290 285 284 298 298 298 298 298 297 297 294 293 293 295 295 295 296 295 294 293 293 293 294 293 292 294 294 294 294 294 294 293 291
292 292 293 292 292 292 292 292 292 293 294 296 296 295 294 293 293 294 295 294 292 290 294 293 294 295 294 294 295 296 296 292 287 285 287 289 289 290 292 295 295 295 294 288 292 294 290 283 289 296 296 295 294 294 291 289 290 296 298 298 298 297 297 295 295 294 293 294 295 292 295 295 294 293 293 294 295 294 294 294 294 294 294 294 294 294 292
293 292 292 293 292 292 293 292 292 293 293 294 296 296 295 295 295 295 295 296 293 292 294 295 295 295 296 296 296 297 295 293 292 293 291 291 291 292 291 293 295 294 294 294 294 293 289 288 293 295 296 294 294 288 293 288 294 298 298 298 297 297 297 296 293 293 292 292 292 294 295 296 294 294 293 294 294 295 294 293 292 293 294 294 294 294 294
292 292 292 292 292 292 292 294 294 292 293 293 293 294 295 295 297 297 296 294 293 293 294 294 291 296 296 295 295 294 294 294 293 292 291 293 294 293 293 295 295 295 287 287 289 290 294 294 293 289 294 294 292 284 283 292 297 298 298 298 297 297 295 294 293 293 292 293 293 294 294 295 294 294 294 295 294 294 294 293 292 293 295 294 294 294 294
291 291 291 292 292 292 292 292 293 294 294 293 294 294 294 294 295 295 294 294 294 294 294 294 292 289 291 293 294 295 296 294 294 293 293 293 293 294 295 297 297 295 284 289 292 295 295 296 295 294 287 289 291 283 283 295 297 297 297 297 295 295 292 292 292 292 292 292 293 293 294 294 294 294 293 294 294 295 295 294 293 294 294 294 295 294 294
291 292 292 292 292 292 292 293 294 294 294 294 294 294 294 295 296 296 296 296 295 295 296 296 295 295 293 294 294 295 295 296 296 296 296 296 296 294 293 294 296 292 285 290 295 295 296 296 296 289 282 282 282 282 293 297 297 297 296 295 293 292 291 292 292 292 292 291 292 293 294 293 293 294 294 293 293 294 294 295 294 294 294 294 295 295 294
291 292 292 293 292 292 292 293 293 294 295 295 293 293 294 295 295 295 296 297 296 296 294 296 296 296 295 294 296 297 296 296 296 296 295 294 294 295 294 288 292 292 293 287 293 295 297 296 290 282 283 283 282 283 296 296 296 295 295 293 293 291 291 291 291 292 291 292 293 293 292 293 293 293 294 294 291 293 293 293 293 293 293 294 295 294 294
292 292 293 288 292 293 294 295 295 295 294 293 293 292 293 295 295 294 295 296 296 296 296 296 297 296 296 296 295 295 294 295 295 295 296 296 295 296 295 289 294 289 286 284 294 296 296 285 281 282 282 282 283 292 295 295 294 295 294 292 292 291 291 292 292 293 294 293 293 293 294 294 294 294 294 295 294 292 293 291 291 293 294 294 295 295 295
292 291 292 293 294 293 293 293 293 294 294 294 294 294 294 294 295 295 294 294 296 295 294 294 295 295 295 296 297 297 296 296 295 294 294 296 293 292 290 285 285 284 286 294 295 296 293 291 287 283 282 282 282 294 295 295 295 294 293 292 292 292 292 293 293 293 294 294 293 291 289 290 292 295 293 293 293 293 292 291 292 292 292 292 293 292 293
292 292 293 293 292 291 292 292 293 293 294 294 295 296 295 294 294 294 294 294 294 294 294 295 294 294 294 294 293 295 297 297 294 295 295 295 295 293 293 294 291 283 285 286 286 285 280 281 281 282 282 282 290 294 294 294 294 294 293 292 292 292 292 293 293 293 293 294 294 295 294 294 295 295 294 294 294 294 292 292 291 290 291 291 293 293 293
293 293 292 292 292 292 293 293 293 293 295 295 295 294 293 293 293 294 293 294 294 295 294 294 294 294 293 292 293 295 293 292 295 295 295 295 295 295 293 288 284 284 289 293 294 292 284 281 281 281 281 284 293 294 293 293 293 292 292 291 292 292 293 292 292 292 293 293 294 294 295 294 296 296 295 294 294 294 292 292 292 290 291 291 292 293 293
291 291 291 291 291 292 293 293 293 295 295 293 294 293 293 294 294 294 293 294 295 292 294 294 295 294 294 294 294 294 294 294 293 294 294 293 293 293 292 292 291 286 286 293 294 292 286 283 284 283 286 292 293 293 292 292 292 291 291 290 290 292 291 288 286 286 290 292 294 294 295 294 295 292 291 292 291 292 291 292 293 291 287 289 292 292 292
290 291 292 291 293 294 294 295 296 295 294 294 295 292 293 294 295 293 293 293 294 293 294 294 294 294 294 295 295 294 293 293 292 289 293 293 293 289 288 291 291 289 289 291 292 292 292 293 291 288 289 290 291 291 291 291 291 290 288 291 291 290 291 290 291 292 294 293 293 293 293 293 292 292 291 291 290 291 292 292 291 292 292 292 291 290 289
293 293 293 293 293 293 293 293 293 293 294 293 293 292 293 294 294 293 292 287 294 295 295 294 293 294 294 294 294 295 294 293 293 294 290 291 293 294 291 286 292 291 293 294 293 293 292 290 287 285 285 290 291 291 287 285 288 289 289 288 288 290 289 289 290 291 291 291 292 292 290 290 290 291 290 290 289 291 290 290 291 291 290 292 292 290 291
Wind_Speed
11 9 10 11 14 13 11 11 9 8 7 6 6 3 3 3 1 2 14 15 15 12 10 10 9 9 8 7 8 10 9 8 8 6 8 9 10 10 12 12 11 12 12 12 13 13 13 12 12 13 11 11 12 13 12 12 13 14 13 12 13 13 14 14 15 15 15 13 13 14 14 13 13 13 12 10 9 9 9 9 9 10 11 12 13 13 13
13 10 9 9 15 12 15 14 13 11 11 13 12 10 5 5 8 13 18 16 13 8 9 10 10 9 9 8 9 9 9 9 7 7 8 9 10 10 10 10 10 9 11 11 11 10 10 11 11 11 10 11 11 11 12 12 12 11 11 12 13 13 13 14 15 15 14 14 14 14 13 13 12 12 12 12 10 9 10 10 10 10 11 11 12 12 13
9 9 9 11 12 14 17 13 12 11 11 14 13 14 15 18 17 16 18 17 12 6 10 11 10 9 9 9 11 10 9 7 7 8 9 9 9 9 9 9 9 9 9 9 9 10 11 11 11 10 10 9 10 11 11 12 12 11 10 11 11 14 14 14 14 15 14 14 14 14 13 13 12 12 13 12 10 8 8 9 10 9 10 12 11 12 13
4 5 11 12 15 17 17 14 14 12 8 7 6 6 2 4 12 15 15 11 8 8 10 10 10 10 9 10 10 9 7 7 8 9 8 8 9 9 9 8 8 9 10 10 10 10 10 10 11 10 10 10 10 11 11 11 11 11 11 11 11 13 15 14 15 15 15 15 15 15 14 14 13 12 11 11 12 11 9 10 8 7 7 9 10 11 11
4 5 2 1 2 4 5 7 6 7 8 9 9 10 10 10 15 13 9 7 9 11 9 10 10 10 10 10 8 8 8 8 8 9 8 8 8 8 9 9 9 9 8 8 9 9 9 9 9 10 10 10 10 10 10 10 10 11 12 12 12 12 13 15 15 15 15 15 16 15 15 14 13 12 12 11 12 11 12 11 8 6 6 9 8 4 5
6 8 2 3 3 5 2 3 5 3 4 8 10 6 7 6 3 4 8 12 12 11 10 10 10 10 10 9 8 7 6 7 8 8 8 8 8 8 9 9 8 8 7 7 7 8 8 9 9 8 9 9 9 9 9 9 10 11 11 12 12 12 12 13 15 15 15 16 16 16 16 15 14 14 14 13 12 10 9 11 10 8 4 6 4 4 4
8 5 2 3 4 2 1 2 3 7 11 15 16 13 11 9 14 17 16 13 11 11 11 11 12 12 12 10 10 9 7 7 8 9 9 10 10 10 10 9 9 8 8 7 8 9 9 9 9 9 10 9 8 9 10 10 10 10 10 11 12 12 13 13 15 15 16 16 16 16 17 16 15 15 15 14 14 12 10 10 9 9 9 6 4 4 3
4 2 1 3 1 2 3 5 7 8 9 11 15 13 10 8 9 13 14 12 13 13 13 12 11 12 13 11 10 8 7 6 6 7 8 9 10 10 9 9 8 8 8 8 8 8 7 9 9 9 9 9 9 10 9 10 10 11 11 11 12 12 13 14 15 15 15 15 15 16 17 17 16 16 15 15 15 13 11 10 9 8 8 8 7 6 6
5 4 5 6 4 3 3 5 4 5 3 1 1 6 4 4 5 7 13 14 13 13 12 12 12 11 11 10 8 6 6 6 7 8 9 9 9 8 7 6 7 6 6 6 7 7 8 8 8 8 8 8 9 10 11 10 11 11 12 13 13 13 12 14 14 14 14 15 15 16 16 16 17 16 15 15 14 13 13 12 11 11 10 10 8 8 8
2 7 6 4 1 4 6 4 2 2 1 1 1 6 4 4 7 9 11 14 14 13 11 9 10 8 6 8 5 4 4 5 7 7 7 6 7 7 6 7 7 8 7 6 7 7 9 9 9 7 8 8 9 10 11 11 11 11 12 13 13 13 12 13 14 13 14 14 14 15 15 16 16 15 14 12 13 13 14 13 12 10 8 8 9 9 9
4 2 5 4 5 1 2 8 4 3 0 1 2 1 4 5 9 10 13 14 12 12 11 10 7 4 4 4 4 3 4 5 5 5 6 6 6 6 6 5 6 7 6 7 8 9 10 11 10 9 9 9 10 11 11 12 12 12 12 12 12 13 13 12 13 13 13 14 13 14 15 15 15 15 14 13 12 13 13 12 13 11 10 8 8 9 9
1 5 4 4 1 2 3 7 3 2 2 3 3 4 5 9 11 11 12 14 13 11 9 8 4 3 7 7 6 6 5 5 4 5 6 7 7 7 7 8 6 7 8 9 10 11 12 11 11 10 9 9 10 10 11 11 12 12 12 11 11 11 11 11 11 13 13 13 13 13 15 14 14 14 11 11 12 12 12 10 9 10 11 10 10 9 8
5 5 3 3 2 1 1 4 3 2 3 2 2 1 3 12 12 11 10 12 11 11 9 4 4 3 4 8 10 8 7 6 5 4 4 4 5 6 7 7 7 7 7 7 9 10 9 10 10 10 9 10 11 11 11 12 12 12 11 10 11 11 10 11 12 11 10 10 11 12 12 12 11 13 12 12 12 12 11 9 10 11 12 10 9 9 8
4 2 3 3 2 1 2 1 2 2 3 2 1 2 6 14 13 10 10 11 10 9 8 5 6 9 12 12 9 8 5 5 4 4 4 5 6 6 5 6 6 5 6 8 9 10 10 9 9 9 9 11 12 11 11 12 11 10 10 10 9 11 11 11 10 11 10 10 9 10 9 9 11 11 11 12 11 9 8 9 11 12 10 9 9 10 8
2 1 4 2 3 3 2 6 4 1 1 2 6 10 9 10 12 11 9 9 11 10 8 10 12 12 11 11 9 7 6 5 5 5 5 5 4 5 6 8 8 6 7 9 10 10 9 10 9 9 10 11 12 11 12 11 9 9 9 9 9 10 10 10 10 10 9 11 9 8 10 8 8 10 11 11 12 12 12 10 10 11 11 10 9 9 9
2 2 2 1 3 5 2 3 3 3 2 5 11 11 10 8 10 10 9 10 10 9 12 12 12 11 11 10 9 7 6 5 4 4 4 4 5 5 6 6 7 7 8 8 8 9 8 9 9 8 8 10 11 11 12 9 8 8 8 8 8 9 8 9 9 9 9 10 10 9 10 9 9 10 10 9 11 11 11 11 9 10 8 8 10 12 13
0 1 2 2 1 3 3 2 3 6 8 9 9 7 10 11 7 7 9 11 9 10 13 13 12 11 9 9 7 8 7 6 5 6 5 4 5 6 6 6 6 6 5 6 7 9 8 10 8 8 8 9 11 12 10 9 9 9 8 8 8 8 8 8 8 8 8 8 9 9 9 10 11 9 10 10 11 11 12 13 13 12 9 9 10 10 10
9 10 6 5 5 7 8 9 8 10 10 9 9 10 9 7 9 7 10 11 11 11 12 12 10 10 10 9 8 7 5 5 4 3 4 5 4 4 4 6 6 5 5 6 8 8 9 9 8 7 8 8 10 9 9 10 9 8 7 7 8 8 7 7 8 8 8 8 8 9 9 8 8 7 8 9 10 10 11 11 11 11 9 9 9 9 9
2 4 3 7 7 8 9 11 9 9 9 9 9 9 10 10 10 11 11 11 12 12 10 10 11 11 9 9 7 4 3 4 3 4 4 4 4 4 6 6 6 6 6 7 8 8 8 8 7 7 7 8 8 8 8 9 9 8 8 7 7 6 7 7 7 7 7 7 6 7 8 7 7 7 7 7 9 10 10 9 10 9 10 11 11 10 9
3 7 6 8 9 8 8 8 9 10 10 11 10 11 11 12 12 12 12 12 11 10 9 9 11 10 6 7 5 4 3 2 3 3 4 4 5 5 3 4 5 5 6 6 7 7 6 7 6 6 7 7 8 8 8 9 8 8 8 8 7 7 7 6 6 6 6 5 6 5 6 6 7 8 7 7 7 9 9 9 9 9 8 9 10 10 9
9 12 10 10 11 10 8 8 8 9 10 13 14 14 14 14 15 12 9 8 10 9 9 8 8 8 5 5 5 5 3 3 3 3 3 3 4 5 7 6 5 5 5 6 6 6 6 6 6 6 7 7 7 7 7 7 7 8 8 8 8 8 7 6 6 5 5 5 5 4 4 4 6 7 8 7 6 6 8 6 6 7 7 7 8 8 8
7 7 11 14 9 7 6 8 10 11 12 14 15 15 15 14 12 11 11 9 8 8 7 7 6 8 5 3 3 5 3 2 2 2 3 3 4 4 4 2 3 4 5 5 5 6 6 6 6 7 7 7 7 7 6 6 6 7 7 8 9 8 7 7 7 6 6 5 5 4 3 3 3 3 6 7 7 6 6 8 10 11 8 6 5 4 6
9 9 15 2 6 13 12 12 11 12 12 13 13 12 11 10 10 10 12 11 9 7 5 3 6 6 6 5 2 4 3 3 1 1 2 3 4 4 5 5 6 6 6 6 6 8 6 6 6 6 6 7 8 8 7 6 6 6 7 8 8 8 7 7 6 5 6 6 5 4 4 4 3 2 3 6 9 9 7 7 9 10 11 10 9 8 4
10 14 10 7 10 13 13 13 12 10 8 11 12 11 10 10 10 9 9 10 10 7 6 4 2 5 5 4 2 4 3 1 1 2 1 1 1 1 2 3 4 6 6 6 6 5 5 4 5 6 7 8 7 8 7 5 5 5 6 7 8 8 7 7 6 6 5 5 6 5 4 4 4 4 3 3 4 7 8 9 11 12 12 12 10 9 9
13 10 9 9 12 15 12 11 10 9 9 10 11 11 10 9 8 9 10 8 7 9 8 6 3 2 4 3 2 2 3 2 2 3 2 2 1 2 3 4 5 4 4 3 3 3 4 4 5 5 6 7 7 8 6 5 5 6 6 6 7 7 7 7 7 7 6 6 6 6 5 4 4 4 4 4 4 4 4 5 9 13 15 15 13 10 10
14 13 13 13 11 11 10 11 9 9 9 9 9 8 8 7 8 8 8 7 6 5 7 6 5 2 2 4 2 2 1 1 3 2 2 3 3 3 4 4 2 2 2 2 3 3 4 5 4 4 6 6 6 6 5 5 4 5 6 6 5 5 6 6 6 6 5 5 6 5 4 4 4 4 4 4 3 3 3 3 2 4 9 14 15 12 11
13 15 18 16 13 11 7 9 10 9 8 8 9 9 9 9 8 7 6 5 5 4 5 5 5 4 2 1 2 2 1 2 1 2 3 3 4 3 2 1 1 2 2 2 3 4 4 4 4 4 5 6 5 5 5 5 5 6 7 7 8 6 6 6 4 4 4 4 5 5 5 5 5 4 4 3 3 3 4 5 5 6 6 6 10 13 9
13 8 2 13 16 13 10 9 10 9 9 10 10 9 9 8 8 9 8 7 5 4 3 3 3 4 3 2 1 2 2 1 3 2 2 3 2 1 1 1 1 2 2 1 2 3 4 4 4 4 4 5 5 5 5 5 5 6 7 8 7 8 7 8 6 4 4 4 4 5 5 5 4 3 3 4 4 3 3 4 5 4 4 5 5 6 10
8 8 9 9 10 10 10 10 10 10 9 7 7 7 8 10 8 8 7 6 4 4 3 3 2 2 1 2 2 1 1 2 3 3 2 2 2 2 1 1 1 1 1 1 2 3 4 4 5 5 4 5 4 4 4 4 4 5 6 7 7 7 7 6 5 5 4 3 4 4 3 3 4 4 3 3 3 3 3 3 4 3 3 3 2 3 5
10 10 10 10 11 13 14 11 10 9 9 8 9 7 6 9 8 6 6 4 3 4 3 2 2 2 2 3 3 2 1 2 3 3 2 1 2 2 2 2 2 2 1 3 5 4 4 4 4 5 4 5 4 4 3 3 3 4 5 5 5 6 5 5 5 4 5 4 3 2 3 4 4 5 5 4 3 3 3 4 3 3 3 2 3 2 3
11 10 10 10 12 12 11 10 8 8 7 7 7 7 5 4 6 6 5 3 2 2 2 2 2 2 3 3 2 2 1 1 1 2 2 1 1 1 1 2 2 2 3 3 4 3 3 3 2 3 4 3 3 3 3 3 3 4 5 6 5 3 4 7 5 5 4 4 4 4 5 4 5 5 5 5 3 3 3 3 2 2 2 2 2 2 2
14 12 11 9 9 11 8 6 7 7 6 6 7 8 8 8 8 8 5 4 3 3 3 4 5 4 2 2 3 3 3 2 2 2 1 1 0 0 0 1 2 3 3 3 3 3 3 2 3 4 3 3 3 2 3 3 3 4 5 5 5 6 5 7 6 5 4 3 4 4 5 5 5 5 5 5 5 4 3 2 2 1 1 2 1 1 2
13 13 10 9 9 9 8 6 8 7 7 8 6 4 3 2 1 2 2 2 1 2 3 4 2 2 2 3 3 4 3 2 2 1 1 1 3 2 0 1 1 3 3 3 3 3 2 2 3 3 3 2 2 2 2 3 3 3 4 4 4 5 6 5 5 5 5 4 4 4 4 4 4 4 5 4 4 4 3 2 2 1 2 2 2 2 3
11 10 10 10 10 11 11 8 5 5 3 2 2 3 3 3 3 3 3 3 3 3 3 2 1 3 4 4 3 3 4 3 2 2 3 3 3 2 1 1 2 3 4 4 3 2 1 2 2 2 2 2 2 1 2 3 2 2 2 3 4 5 6 7 6 5 6 5 4 2 2 3 4 4 4 4 4 4 4 2 3 3 2 2 2 3 5
8 7 8 9 8 9 9 8 7 6 6 5 4 3 3 3 4 4 3 4 4 3 1 3 3 4 3 3 5 5 6 5 4 3 3 2 1 2 1 2 2 2 3 1 0 0 1 1 1 2 2 2 1 1 1 2 2 2 1 2 3 4 5 5 6 5 5 5 3 3 3 4 3 2 3 3 4 3 3 4 3 4 2 2 3 2 3
7 7 5 5 4 5 7 7 7 8 7 6 6 5 6 5 5 5 6 5 2 3 3 4 5 5 4 5 5 5 5 4 4 4 4 3 1 1 1 2 2 3 4 4 2 1 1 1 1 3 3 1 1 1 2 2 2 1 1 1 2 4 4 4 4 4 4 4 4 4 3 2 2 2 3 3 3 3 3 4 3 2 2 3 1 1 0
7 9 7 6 5 6 6 5 6 7 7 6 5 5 4 5 6 3 2 2 3 3 4 5 5 5 5 6 4 3 2 3 2 2 1 1 1 1 1 1 2 3 2 3 0 1 1 1 2 4 3 1 1 2 2 2 1 0 0 1 2 2 4 4 5 5 5 4 4 4 3 3 2 2 2 2 3 3 3 3 3 3 2 0 0 1 1
6 7 9 8 7 7 6 5 4 4 5 4 2 3 4 4 3 3 3 3 3 4 4 4 4 3 4 3 2 4 3 3 3 4 4 3 2 1 2 3 3 2 2 2 1 1 2 2 3 3 1 1 1 1 1 2 2 1 0 1 2 2 3 4 5 5 5 4 4 3 3 3 2 2 2 2 2 2 2 2 2 2 1 1 0 1 2
5 2 2 3 4 5 5 5 5 5 6 8 5 3 2 3 3 3 4 4 3 4 5 4 3 4 3 3 3 3 3 5 5 4 3 3 2 3 3 4 3 3 5 2 2 3 2 2 2 2 1 1 1 1 1 0 2 1 0 1 1 2 3 3 4 4 4 4 3 4 4 4 3 2 2 2 2 2 2 2 3 2 2 2 1 1 1
6 6 7 6 6 5 5 5 6 6 5 4 7 6 5 5 4 4 4 4 3 4 4 5 4 4 3 3 3 3 2 3 3 3 2 2 2 2 4 4 2 2 2 3 3 2 2 2 3 1 1 1 1 1 1 0 2 0 0 1 1 2 2 2 2 4 4 4 3 4 3 3 3 3 3 3 2 3 3 2 2 2 2 2 2 0 1
7 6 5 6 6 6 6 7 6 6 5 4 4 5 5 5 5 4 5 4 4 4 4 4 4 3 3 4 4 2 1 2 2 2 2 2 2 1 1 2 2 1 0 0 1 2 2 3 2 1 1 1 1 1 0 2 2 1 1 1 2 2 3 3 4 4 4 4 4 5 4 4 3 3 3 3 3 2 2 2 2 3 3 3 2 1 2
7 7 7 7 6 7 7 5 6 6 4 4 3 4 5 4 5 4 4 4 4 4 3 3 2 1 1 1 1 1 1 2 2 3 4 3 2 1 1 1 2 1 1 3 3 3 2 2 2 1 1 1 1 1 1 1 1 0 1 1 1 1 2 3 4 4 3 3 3 4 4 3 4 3 3 3 3 3 2 2 2 3 4 3 2 2 2
8 9 9 8 7 7 7 8 8 8 7 5 4 4 4 3 2 3 4 4 4 4 3 2 3 2 1 1 1 1 1 2 2 2 2 4 4 3 3 2 0 1 1 3 3 2 1 1 0 1 1 1 1 1 3 1 0 0 1 1 2 2 3 3 4 4 4 4 5 4 4 4 3 3 3 2 3 3 3 3 3 3 4 3 2 1 2
9 8 8 8 8 7 7 7 6 6 7 6 4 4 4 3 3 4 5 4 4 3 3 4 3 3 2 2 2 2 1 1 1 1 1 1 1 2 3 3 3 2 2 3 2 2 1 1 0 2 2 1 1 4 1 1 1 0 1 2 2 3 3 4 4 4 4 5 5 5 5 5 4 3 3 2 1 2 3 2 2 3 3 3 2 2 2
9 9 9 8 9 8 7 7 9 9 6 5 5 4 4 4 3 2 3 4 4 3 2 2 2 2 2 2 2 1 0 1 0 1 1 1 1 2 2 2 3 3 2 2 3 2 1 1 1 1 2 3 3 5 2 1 1 0 1 1 2 3 3 4 4 4 4 4 5 5 4 4 4 3 3 2 2 2 1 2 4 4 4 3 1 3 3
8 6 7 8 8 8 7 6 4 5 6 6 5 3 3 3 3 3 3 3 4 3 3 3 3 3 3 3 1 1 0 1 1 1 1 1 1 1 1 1 2 3 4 4 2 1 0 1 3 4 4 4 5 4 2 2 1 1 1 1 1 2 2 3 3 4 4 4 4 4 4 3 3 3 3 2 2 1 2 3 4 3 2 2 2 3 3
7 6 6 7 6 5 5 4 5 6 6 6 6 5 4 3 3 3 3 2 1 2 2 2 2 2 1 2 2 3 3 2 2 1 2 1 1 1 2 3 4 5 4 2 1 1 1 1 2 2 3 3 5 3 2 2 2 2 2 2 1 1 2 2 2 3 3 3 4 4 3 2 2 2 2 2 1 1 2 2 2 2 2 2 3 4 5
7 7 6 6 7 6 6 6 7 7 7 8 7 6 4 3 3 3 2 3 3 3 2 2 2 2 2 2 1 0 1 1 1 2 2 1 0 0 1 0 1 3 3 3 2 2 3 2 1 2 2 2 2 2 2 2 2 2 2 2 2 2 1 2 2 3 3 3 3 3 3 3 3 3 3 3 2 1 1 1 0 1 2 2 2 2 4
6 6 6 5 6 8 7 7 6 6 6 5 5 4 4 4 4 3 3 3 4 3 3 2 2 2 2 1 1 1 1 1 1 1 1 0 0 0 1 1 1 1 1 1 1 2 3 4 3 4 2 2 1 1 2 2 2 2 2 2 2 2 2 2 2 2 3 3 3 2 3 3 4 4 3 2 3 1 1 1 1 3 2 2 2 3 3
5 6 6 6 6 6 6 5 5 5 4 4 4 4 4 5 4 3 3 3 3 3 3 2 2 2 1 1 1 1 1 1 1 1 1 1 1 1 0 0 1 2 2 1 1 1 2 2 4 4 3 1 1 1 1 1 2 2 2 2 2 2 2 2 2 3 3 2 2 2 2 2 3 3 3 3 2 2 2 1 2 4 4 4 5 1 1
6 6 6 6 6 6 6 7 6 6 5 5 4 5 5 6 5 4 4 4 4 4 3 3 2 2 2 2 1 1 1 1 1 1 1 1 1 1 0 0 1 1 1 1 1 1 1 2 2 2 1 1 1 1 1 1 2 1 2 2 2 2 2 2 2 2 1 2 2 1 1 1 2 2 2 2 2 2 2 3 2 1 2 2 2 2 3
8 6 5 4 4 4 4 1 1 1 2 3 5 5 5 4 4 4 3 4 4 5 5 5 4 3 2 2 2 2 1 1 1 2 1 1 1 1 1 1 1 1 0 1 1 1 1 1 0 1 1 1 1 1 0 1 1 1 2 2 2 2 1 2 1 1 0 0 1 0 1 1 2 1 1 1 2 3 2 2 2 2 1 1 0 0 0
Wind_Direction
73 71 83 85 83 77 82 69 55 44 34 59 86 69 36 321 223 171 145 150 139 138 132 127 121 122 111 111 95 86 89 87 80 73 64 55 47 40 38 35 32 30 28 25 24 24 23 18 19 21 19 15 17 15 12 1 6 8 2 0 359 357 355 354 350 347 346 344 340 339 336 333 330 326 322 312 301 289 277 266 255 245 235 235 234 229 222
64 65 78 84 94 94 70 59 57 59 66 76 84 83 73 82 94 113 135 127 115 115 120 115 112 108 109 103 93 86 82 78 76 70 63 57 50 44 38 36 31 28 32 33 29 23 17 15 13 13 12 10 7 3 359 356 356 356 358 4 7 2 360 355 350 349 348 347 346 342 341 337 333 329 325 320 311 300 285 273 265 250 237 232 233 232 226
57 67 89 89 88 88 78 59 58 65 75 79 79 87 84 88 92 107 113 110 107 97 107 107 106 104 103 89 81 80 78 74 70 65 61 57 54 48 41 37 30 26 23 21 19 20 16 12 12 9 8 6 6 5 1 356 354 350 354 356 3 7 1 358 355 353 352 348 347 347 343 338 338 337 335 331 318 300 287 271 261 251 234 229 229 229 227
72 71 94 100 97 87 78 56 39 33 35 57 33 60 28 120 132 127 118 115 122 131 117 106 102 99 90 86 83 82 77 77 74 71 62 58 54 47 43 36 31 26 21 20 19 16 13 12 12 10 6 7 10 7 359 355 349 349 354 359 0 4 4 359 359 357 355 350 350 349 346 344 343 341 342 345 347 338 317 286 262 238 221 225 228 221 222
126 158 273 286 288 146 76 26 9 38 77 94 83 61 67 105 132 134 148 134 126 127 123 110 101 99 94 83 81 87 82 74 75 72 63 59 55 51 43 37 31 24 18 18 18 14 15 14 13 12 9 9 10 3 360 354 352 354 356 359 360 2 3 3 0 359 357 354 352 352 350 347 346 348 350 354 356 351 344 331 294 235 217 223 229 233 230
148 187 232 267 182 175 97 356 311 279 118 104 79 54 59 40 67 91 113 125 127 122 117 112 113 102 92 94 84 80 85 85 79 69 65 59 55 50 45 40 33 27 25 22 19 17 15 15 16 9 13 8 359 360 358 360 1 0 359 1 1 360 360 3 3 1 1 0 358 356 353 353 354 356 358 359 355 354 351 356 351 320 280 222 196 169 205
147 177 242 158 173 83 51 341 54 102 111 95 85 71 58 87 108 110 111 114 110 110 107 109 104 101 100 93 92 82 77 80 79 78 72 66 60 58 54 42 34 30 23 18 18 22 16 11 10 9 11 3 354 3 3 5 5 5 4 5 7 2 359 2 6 4 3 2 0 360 359 358 359 2 3 1 5 7 10 14 7 9 1 356 3 28 50
101 137 190 183 112 35 78 101 106 113 108 104 94 67 56 67 102 116 112 111 112 114 114 111 110 109 105 94 81 76 72 68 75 77 72 68 65 62 56 48 33 26 18 15 14 14 9 12 12 10 5 353 0 6 5 8 7 10 8 13 12 4 2 7 8 7 6 6 4 4 4 4 5 7 7 8 8 8 13 20 22 16 14 11 11 21 29
147 108 67 81 121 114 60 128 168 178 139 149 34 115 70 74 92 111 118 119 118 118 119 121 122 124 111 91 74 68 71 71 71 73 74 70 67 60 47 38 37 26 18 15 12 11 16 19 12 7 355 357 6 9 10 5 8 12 15 17 12 7 5 12 11 12 12 11 11 10 10 10 11 11 12 14 16 16 20 26 29 31 31 31 27 40 42
128 127 103 102 111 217 206 217 116 148 60 139 132 104 95 98 114 124 121 124 128 128 130 141 150 169 122 78 76 67 76 78 84 76 70 62 57 51 41 32 36 28 17 15 24 23 19 20 15 1 358 358 6 14 12 8 10 14 19 19 10 8 7 10 17 18 18 18 17 16 17 18 16 17 19 21 24 25 29 30 31 23 22 30 23 20 41
132 108 126 162 175 195 74 165 158 119 26 194 214 138 122 150 141 141 135 131 135 141 151 156 163 183 114 112 129 132 106 95 79 71 66 61 57 53 44 29 25 23 15 18 23 25 24 23 10 6 1 5 14 15 13 10 11 17 19 16 12 8 7 9 20 23 22 22 20 21 25 25 22 21 21 24 26 33 34 33 34 34 31 27 27 23 13
93 122 108 158 216 116 158 149 138 131 87 138 253 167 174 157 156 148 145 141 147 154 153 154 156 128 130 153 159 146 121 103 77 62 59 49 41 39 33 29 17 26 24 24 26 26 25 19 10 7 360 11 17 16 12 9 11 13 12 12 11 11 9 11 17 27 31 26 19 22 28 31 31 29 22 20 23 31 33 32 32 28 36 38 37 24 5
104 93 95 78 114 354 165 145 129 126 191 209 186 127 107 150 151 152 152 149 151 150 151 161 105 32 66 108 134 133 128 106 82 63 55 53 40 37 31 22 11 25 23 22 24 26 23 16 11 4 360 11 16 15 12 13 9 3 1 4 12 16 14 16 17 18 20 21 16 22 25 30 30 32 28 25 26 31 31 28 37 36 32 26 36 34 15
106 100 95 88 76 82 122 101 127 141 183 153 152 52 137 144 147 151 151 144 143 142 139 106 99 111 111 115 123 125 109 95 89 76 62 55 49 44 38 28 21 10 19 17 19 20 20 16 12 8 4 12 12 11 14 11 1 352 358 1 7 15 16 17 16 17 19 14 18 24 11 18 33 32 31 33 29 24 25 27 41 43 32 22 31 41 18
89 39 96 134 150 151 93 136 99 330 255 62 117 123 128 143 143 145 144 139 144 138 118 111 119 119 120 121 121 111 107 94 80 64 53 45 32 27 24 29 25 17 28 24 22 20 19 18 15 13 9 13 9 6 13 2 353 354 358 3 9 13 12 13 15 16 15 16 16 20 25 14 27 32 33 32 31 30 31 34 32 39 34 27 25 37 37
114 153 164 161 44 108 99 201 156 148 6 117 140 133 126 134 142 141 136 142 141 128 124 130 126 124 122 119 120 111 103 99 94 80 65 49 42 39 40 39 27 20 31 26 20 21 21 18 17 15 10 11 9 6 6 352 353 357 2 7 11 13 11 11 10 13 14 17 16 13 12 9 17 28 28 29 33 31 32 32 33 38 34 30 32 33 35
255 87 100 67 84 76 57 76 90 102 116 129 135 115 127 141 135 125 130 136 121 123 127 128 128 128 129 126 124 117 112 99 77 64 50 35 30 30 28 27 17 21 23 19 21 23 25 21 16 15 12 9 8 9 358 356 1 1 0 8 15 12 12 12 11 7 13 20 20 18 17 28 31 23 25 28 36 33 38 38 38 38 33 31 38 36 36
98 63 68 103 84 90 88 86 105 115 117 119 113 113 120 123 134 138 133 133 123 124 127 129 131 128 129 125 119 107 95 91 79 59 50 41 28 26 25 22 9 2 7 22 22 17 22 21 13 10 7 9 13 5 1 3 1 359 1 9 15 13 10 9 9 10 14 17 25 22 18 21 27 21 14 25 36 33 39 42 38 36 29 34 36 37 37
142 63 51 91 97 101 102 104 105 104 109 115 118 116 115 121 123 121 123 121 124 124 127 128 127 129 124 117 112 108 107 87 65 51 40 33 28 19 18 11 356 7 11 16 15 11 14 11 5 3 5 13 12 5 6 5 1 3 10 5 8 13 9 7 10 12 16 12 11 24 17 14 19 18 13 12 28 33 31 35 43 41 36 34 37 37 39
99 132 123 103 97 97 107 114 118 114 114 112 111 113 115 117 117 119 118 117 115 121 116 124 126 124 122 122 123 114 101 80 53 47 36 22 17 17 13 10 3 11 19 14 9 7 11 2 354 358 10 12 9 7 8 12 3 6 10 3 359 7 7 12 13 6 12 5 3 25 19 17 16 12 8 11 26 31 22 16 24 37 41 45 46 44 43
96 103 110 114 98 86 91 108 112 119 123 119 113 111 112 116 116 109 95 102 119 118 119 118 122 119 119 109 122 114 101 85 65 47 19 7 358 358 7 9 17 22 7 10 5 6 9 355 350 1 11 10 7 6 6 13 3 11 9 2 4 5 1 11 13 2 359 12 21 18 23 31 46 38 22 8 10 32 32 22 15 23 44 47 48 50 52
154 163 162 154 131 141 129 120 125 125 124 121 118 118 118 119 117 112 108 93 91 106 118 128 126 121 126 133 131 105 93 80 50 18 4 351 358 14 16 353 23 36 33 18 14 15 11 0 2 14 16 13 7 7 6 10 7 10 5 11 12 8 4 8 9 360 1 4 9 18 22 18 18 69 86 58 38 32 30 16 39 40 38 47 33 47 59
178 163 162 156 82 120 137 136 132 129 130 125 120 117 116 113 112 118 118 119 117 113 102 95 125 125 125 129 131 112 107 68 24 330 326 354 6 18 12 26 34 32 26 22 25 25 13 1 14 14 17 15 8 6 6 7 3 6 6 10 15 12 3 5 5 354 1 2 5 8 11 7 16 19 34 60 58 48 37 27 36 37 39 34 32 31 52
101 139 140 136 137 134 139 137 130 127 126 119 113 113 115 119 121 121 118 124 127 122 120 104 89 123 119 128 129 101 93 72 16 28 51 1 356 356 38 52 42 34 31 24 23 11 0 3 12 11 15 18 7 7 8 0 358 4 10 7 12 8 4 359 355 10 2 8 4 10 10 7 4 355 10 28 55 53 44 39 41 42 35 27 23 26 32
140 127 118 110 106 119 121 122 118 119 121 122 122 126 128 124 122 125 124 122 125 131 130 125 110 92 119 128 126 88 63 31 7 2 0 40 54 55 68 65 49 33 29 14 4 0 5 6 10 7 18 18 8 9 4 356 357 11 16 15 6 0 357 354 356 11 10 12 13 13 9 4 359 356 359 8 19 26 33 57 60 51 38 26 17 18 31
112 113 106 99 95 105 113 110 102 115 121 120 114 112 112 110 117 121 119 123 120 120 123 127 128 133 138 136 147 136 119 32 12 347 82 65 66 63 54 44 15 6 359 2 4 6 4 3 3 3 21 15 7 360 351 354 356 10 11 12 1 4 355 340 351 9 9 11 13 16 13 5 360 357 1 2 6 2 5 13 22 78 63 42 25 18 36
107 115 116 105 110 121 137 132 137 135 122 116 116 115 113 115 110 103 102 99 107 116 127 129 124 137 147 126 122 118 71 2 49 81 60 55 47 36 20 346 348 341 334 347 9 12 347 343 359 12 20 10 359 353 349 351 355 2 5 7 6 1 1 354 358 4 5 9 12 16 17 10 5 354 357 355 350 354 5 7 16 19 6 25 38 34 38
117 119 89 138 144 145 133 105 113 120 121 119 119 117 119 118 117 118 117 119 121 119 115 121 130 138 133 134 158 133 154 110 94 90 82 64 59 36 10 324 327 331 320 317 355 355 348 353 359 9 18 2 357 359 352 349 352 358 0 6 7 3 360 2 360 360 3 13 15 19 15 15 5 358 345 343 346 2 8 14 11 14 34 38 47 38 50
80 81 71 75 95 102 103 110 112 110 105 103 109 119 131 131 130 134 135 133 131 133 146 151 182 176 147 136 180 166 138 130 132 118 95 74 73 38 8 313 270 277 291 304 1 4 357 6 5 10 14 356 354 7 350 349 356 358 2 6 8 5 5 1 354 347 344 5 28 19 12 8 12 14 7 355 351 343 3 19 16 11 24 37 66 92 71
101 98 98 104 112 119 121 121 122 120 123 131 133 131 141 141 141 146 143 141 163 168 140 121 160 171 169 171 187 190 158 126 126 123 111 69 53 26 357 331 256 232 237 21 11 358 351 3 2 10 3 345 348 357 347 349 355 351 353 15 15 7 359 350 341 346 350 353 12 333 15 20 23 19 21 16 7 359 9 25 24 8 0 21 23 37 53
102 98 101 111 120 124 122 122 120 124 126 134 137 133 128 143 148 152 161 160 171 176 153 194 209 195 189 203 169 158 133 113 129 135 130 68 72 38 353 326 351 47 12 348 338 340 331 343 354 7 354 336 338 344 348 355 351 340 356 12 11 15 0 340 334 347 345 343 351 7 18 21 27 21 27 25 23 17 14 24 28 16 348 348 15 32 41
110 106 107 114 123 124 119 124 130 135 139 138 146 160 165 167 173 180 172 185 192 187 174 196 212 212 177 150 155 148 150 140 144 147 164 136 329 333 261 270 295 296 301 312 310 316 318 312 7 16 338 336 333 346 345 353 335 346 7 360 359 359 11 351 347 353 340 348 344 4 14 7 25 15 27 29 28 30 20 19 30 25 4 0 358 45 25
119 122 121 128 132 138 141 153 150 153 160 172 178 150 146 156 132 141 176 164 151 186 207 217 206 123 129 141 144 148 141 134 130 131 196 282 284 285 263 275 273 283 288 289 299 299 286 303 344 336 332 326 329 342 352 347 339 343 349 352 351 352 349 359 1 332 349 347 8 11 8 7 3 20 28 26 21 15 19 21 18 20 41 31 29 30 23
145 147 146 151 155 156 162 169 176 155 137 85 123 159 171 187 188 194 195 192 225 222 217 212 139 130 138 139 136 130 135 139 168 203 230 246 266 290 297 282 277 279 281 293 294 263 240 254 292 309 319 309 310 339 354 353 352 331 333 331 345 348 354 352 344 354 351 357 4 347 339 4 8 5 12 20 20 13 11 3 11 13 27 49 56 42 41
146 141 151 162 167 165 164 159 169 173 168 174 182 196 198 191 198 205 178 198 208 205 126 114 127 128 115 119 141 157 163 175 186 184 224 224 257 291 300 288 275 284 290 306 259 193 210 259 277 297 292 287 290 1 359 357 341 337 331 332 337 348 352 349 350 354 349 344 332 349 358 1 13 352 328 350 14 4 5 7 9 20 25 39 46 41 29
142 141 159 164 160 159 167 168 169 171 175 183 185 186 190 198 190 186 187 201 160 127 132 129 127 124 129 144 154 171 191 203 192 204 235 247 257 270 266 271 306 311 324 331 130 164 187 235 232 289 290 292 317 71 31 352 341 335 1 319 351 351 357 350 348 338 332 339 344 349 353 350 311 323 333 343 13 13 7 14 16 26 46 73 102 111 85
167 159 169 165 163 167 167 172 171 174 182 186 179 178 177 182 193 175 131 143 143 148 141 136 134 154 178 192 181 175 189 189 184 193 213 232 224 238 231 262 254 279 296 304 302 152 268 314 323 287 263 264 307 47 62 328 306 69 258 321 355 358 355 354 352 339 333 340 349 342 332 302 302 319 315 326 356 12 356 360 13 12 30 75 60 69 70
183 170 164 165 167 170 175 170 169 170 151 148 171 197 181 161 154 151 159 152 163 155 151 154 159 140 132 138 153 184 208 181 187 204 234 247 232 245 254 246 264 230 257 290 23 267 306 335 292 270 260 285 354 37 41 340 286 269 72 341 358 349 353 349 347 347 336 341 336 329 328 328 318 311 322 313 318 333 345 349 340 347 352 21 46 18 9
147 136 129 136 147 151 135 136 158 179 180 169 168 163 132 104 117 132 168 182 158 150 152 153 142 134 136 152 172 199 220 204 194 193 207 215 198 218 249 263 277 285 282 312 323 291 298 309 302 280 281 354 353 70 96 333 252 264 12 337 339 341 346 348 347 341 338 332 327 334 329 329 317 293 288 299 306 318 304 327 328 316 326 338 333 21 35
160 171 167 159 164 163 156 157 168 176 188 188 155 166 161 154 164 183 172 154 164 182 164 149 159 156 162 172 186 210 181 164 174 176 195 179 180 228 271 261 237 260 269 284 271 272 289 287 264 260 331 30 344 16 83 266 239 222 239 321 334 334 342 333 323 333 339 335 318 292 297 308 308 304 284 278 280 283 300 285 265 278 296 304 318 89 204
171 164 160 173 166 165 168 162 172 179 175 187 188 148 156 164 156 169 176 170 153 176 175 173 165 174 189 193 202 189 113 143 164 181 155 155 187 198 266 312 62 283 221 317 327 307 282 264 267 295 42 49 51 17 50 187 226 177 224 287 320 334 331 322 327 321 330 328 327 323 323 313 306 291 289 277 271 280 277 279 284 283 292 300 315 323 287
170 164 162 166 166 174 177 167 143 152 179 188 184 151 154 158 168 170 150 126 137 163 172 189 208 213 172 196 187 190 175 180 182 187 192 218 243 234 252 93 100 104 101 285 254 249 244 224 215 242 347 41 70 117 274 212 220 202 281 288 308 305 306 312 308 317 318 306 308 311 309 304 304 304 297 285 266 249 243 226 229 256 275 289 285 278 282
159 166 172 173 168 168 162 164 170 173 166 173 175 157 145 149 126 107 129 138 150 157 173 176 170 175 177 173 177 210 191 146 173 177 213 233 239 241 269 1 79 351 310 291 292 269 259 255 243 103 22 314 32 148 219 217 168 245 292 307 305 303 306 305 311 312 313 322 323 314 304 305 301 298 290 285 271 239 229 236 241 254 275 289 282 253 251
171 168 165 163 168 166 161 159 157 154 164 168 159 147 147 148 135 149 157 162 163 171 177 177 175 174 165 161 169 212 195 181 185 173 260 269 154 189 230 256 290 326 306 289 289 280 293 276 323 117 167 218 214 208 216 148 185 236 298 313 317 313 312 309 305 306 317 318 317 318 317 307 296 287 278 272 270 248 235 244 306 287 274 272 287 274 245
167 168 168 165 151 150 157 154 163 176 162 129 136 150 160 156 153 163 174 171 175 172 176 190 180 167 162 179 201 223 83 42 15 140 203 268 242 132 144 224 259 273 268 276 276 270 289 309 44 295 275 256 219 207 212 177 213 249 302 304 308 312 317 313 313 312 310 305 306 307 305 301 303 295 277 286 304 304 292 213 227 247 261 252 222 257 259
158 152 144 139 152 167 169 160 132 109 122 135 133 146 170 169 167 173 195 181 176 187 188 177 182 177 175 178 184 104 154 211 230 241 291 316 330 47 86 285 288 292 298 279 265 279 312 37 317 302 303 279 235 220 210 194 211 215 245 273 288 297 305 312 313 312 316 316 321 320 316 316 315 316 329 335 340 305 264 234 236 245 246 251 222 248 256
140 143 160 158 141 123 118 114 126 129 128 142 161 173 179 180 181 177 171 165 141 134 134 150 146 134 167 180 185 179 167 146 121 163 213 201 234 265 274 264 261 274 271 265 324 333 15 355 345 319 290 279 262 263 237 231 219 241 244 253 260 279 299 308 314 318 324 333 335 317 314 313 322 330 314 299 273 274 285 256 228 244 244 230 221 231 243
150 153 158 149 136 132 126 130 139 152 163 175 181 171 152 153 156 136 129 128 123 125 129 127 127 121 131 143 153 350 20 158 205 169 167 198 190 221 215 176 354 331 287 215 201 100 58 1 7 0 353 274 235 247 254 255 259 252 262 259 252 264 291 314 315 325 331 334 333 347 354 354 348 346 348 342 340 327 287 290 282 229 224 237 235 229 229
157 145 135 126 134 143 147 154 158 162 181 170 158 148 142 141 130 129 132 135 143 144 138 127 124 122 112 80 76 101 120 319 349 75 120 143 184 172 102 156 213 283 283 64 59 83 41 18 37 34 13 262 269 275 264 256 249 256 258 264 264 272 282 290 310 319 316 320 330 327 327 327 329 335 339 336 328 327 237 225 243 254 245 235 245 231 223
127 126 134 146 151 159 159 157 172 181 158 158 175 149 154 149 153 162 162 166 161 146 143 146 149 142 141 147 142 141 124 131 99 90 118 148 142 157 139 58 62 34 17 44 46 53 68 32 48 36 5 349 345 293 289 275 253 245 255 238 252 262 259 280 278 267 273 294 309 319 328 329 340 348 333 329 342 328 316 277 231 233 255 261 245 256 322
153 161 166 167 172 170 172 175 174 165 166 175 157 149 158 183 176 149 165 162 154 158 162 158 161 165 170 158 149 139 126 131 103 124 160 137 143 105 53 115 90 44 49 38 42 26 23 26 28 355 357 342 332 320 331 316 300 265 243 246 238 263 257 236 254 267 298 320 314 344 359 5 19 10 4 8 348 338 335 324 303 270 219 217 205 194 210
167 165 154 151 158 153 168 136 66 141 157 149 150 159 175 170 145 149 148 177 182 170 171 167 185 190 188 174 170 151 141 154 164 165 167 174 184 186 148 224 211 155 173 86 70 55 37 57 57 25 339 329 352 347 309 255 266 293 304 310 294 269 286 316 292 289 345 246 298 33 58 28 5 10 19 4 351 342 342 348 344 336 328 332 255 223 204